Location: ???????
(55.4362°N, 38.1183°E)
Time: 13:15:38
(UTC+00:00)

Cosmos 372 Rocket - Pass Details

Date: 29 October 2021
Orbit: 738 x 768 km, 74.1° (Epoch: 04 December)

Event Time Altitude Azimuth Distance (km) Brightness Sun altitude
Rises 16:08:28 0° 290° (WNW) 3,179 8.6 -19.3°
Reaches altitude 10° 16:12:42 10° 323° (NW) 2,260 7.0 -19.9°
Maximum altitude 16:14:21 11° 342° (NNW) 2,164 6.6 -20.2°
Drops below altitude 10° 16:16:00 10° 1° (N) 2,264 6.5 -20.4°
Enters shadow 16:18:33 - 25° (NNE) 2,739 6.7 -20.8°
